#timestamp,LO_Frequency,Hit 
1498478415.2,286046998.0,N
1498478435.1,286046997.5,N
1498478436.0,286046997.5,N
1498478455.8,286046997.9,N
1498478475.7,286046997.3,N
1498478495.5,286046997.5,N
1498478515.3,286046995.3,N
1498478535.2,286046997.8,N
1498478555.0,286046997.9,N
1498478555.9,286046997.9,N
1498478575.8,286046997.7,N
1498478595.6,286046995.0,N
1498478615.4,286046997.1,N
1498478635.3,286046997.3,N
1498478655.1,286046997.9,N
1498478675.8,286046995.3,N
1498478695.7,286046995.2,N
1498478715.5,286046995.2,N
1498478735.4,286046995.2,N
1498478755.2,286046995.2,N
1498478775.0,286046996.2,N
1498478775.9,286046996.2,N
1498478795.8,286046995.6,N
1498478815.6,286046995.3,N
1498478835.5,286046997.6,N
1498478855.3,286046996.7,N
1498478875.1,286046997.7,N
1498478895.9,286046997.9,N
1498478915.7,286046996.1,N
1498478935.5,286046995.7,N
1498478955.4,286046995.7,N
1498478975.2,286046996.4,N
1498478995.0,286046995.5,N
1498478996.0,286046995.5,N
1498479015.8,286046995.5,N
1498479035.6,286046995.8,N
1498479055.5,286046995.7,N
1498479075.3,286046993.4,N
1498479095.1,286046996.2,N
1498479115.9,286046995.8,N
1498479135.7,286046995.3,N
1498479155.6,286046995.8,N
1498479175.4,286046995.0,N
1498479195.2,286046993.6,N
1498479215.1,286046994.2,N
1498479216.0,286046994.2,N
1498479235.8,286046992.1,N
1498479255.6,286046992.5,N
1498479275.5,286046993.9,N
1498479295.3,286046994.0,N
1498479315.2,286046991.7,N
1498479335.9,286046994.5,N
1498479355.7,286046995.6,N
1498479375.6,286046995.8,N
1498479395.4,286046992.1,N
1498479415.2,286046994.2,N
1498479435.1,286046992.7,N
1498479436.0,286046992.7,N
1498479455.8,286046993.2,N
1498479475.7,286046991.4,N
1498479495.5,286046990.9,N
1498479515.3,286046991.1,N
1498479535.2,286046988.7,N
1498479555.0,286046988.9,N
1498479555.9,286046988.9,N
1498479575.7,286046990.3,N
1498479595.6,286046990.6,N
1498479615.4,286046990.6,N
1498479635.3,286046990.4,N
1498479655.1,286046992.8,N
1498479675.8,286046990.3,N
1498479695.7,286046990.1,N
1498479715.5,286046991.3,N
1498479735.4,286046990.3,N
1498479755.2,286046993.2,N
1498479775.0,286046993.1,N
1498479775.9,286046993.1,N
1498479795.8,286046991.6,N
1498479815.6,286046993.1,N
1498479835.4,286046992.6,N
1498479855.3,286046994.4,N
1498479875.1,286046992.1,N
1498479895.9,286046991.7,N
1498479915.7,286046991.8,N
1498479935.5,286046992.4,N
1498479955.4,286046992.2,N
1498479975.2,286046994.7,N
1498479995.0,286046992.0,N
1498479995.9,286046992.0,N
1498480015.8,286046992.2,N
1498480035.6,286046994.3,N
1498480055.5,286046993.8,N
1498480075.3,286046991.7,N
1498480095.1,286046994.3,N
1498480115.9,286046991.8,N
1498480135.7,286046993.2,N
1498480155.6,286046994.1,N
1498480175.4,286046994.0,N
1498480195.2,286046993.8,N
1498480215.1,286046994.4,N
1498480216.0,286046994.4,N
1498480235.8,286046992.5,N
1498480255.7,286046994.8,N
1498480275.5,286046994.8,N
1498480295.3,286046994.8,N
1498480315.2,286046994.7,N
1498480335.9,286046992.8,N
1498480355.7,286046990.4,N
1498480375.6,286046993.1,N
1498480395.4,286046991.0,N
1498480415.3,286046992.8,N
1498480435.1,286046991.4,N
1498480436.0,286046991.4,N
1498480455.8,286046988.6,N
1498480475.7,286046989.7,N
1498480495.5,286046989.6,N
1498480515.3,286046989.0,N
1498480535.2,286046989.7,N
1498480555.0,286046989.4,N
1498480555.9,286046989.4,N
1498480575.8,286046989.5,N
1498480595.6,286046989.8,N
1498480615.4,286046988.9,N
1498480635.3,286046989.3,N
1498480655.1,286046990.0,N
1498480675.8,286046988.1,N
1498480695.7,286046985.4,N
1498480715.5,286046988.1,N
1498480735.4,286046987.6,N
1498480755.2,286046988.3,N
1498480775.0,286046987.2,N
1498480775.9,286046987.2,N
1498480795.8,286046989.6,N
1498480815.6,286046987.6,N
1498480835.4,286046987.1,N
1498480855.3,286046987.9,N
1498480875.1,286046988.2,N
1498480895.9,286046985.4,N
1498480915.7,286046986.0,N
1498480935.5,286046985.4,N
1498480955.4,286046988.0,N
1498480975.2,286046988.1,N
1498480995.0,286046986.0,N
1498480995.9,286046986.0,N
1498481015.8,286046986.2,N
1498481035.6,286046986.1,N
1498481055.5,286046988.2,N
1498481075.3,286046988.0,N
1498481095.1,286046987.9,N
1498481115.9,286046987.0,N
1498481135.7,286046988.1,N
1498481155.5,286046987.9,N
1498481175.4,286046988.3,N
1498481195.2,286046985.3,N
1498481215.1,286046985.7,N
1498481216.0,286046985.7,N
1498481235.8,286046985.8,N
1498481255.6,286046988.3,N
1498481275.5,286046985.8,N
1498481295.3,286046985.6,N
1498481315.2,286046987.6,N
1498481335.9,286046985.6,N
1498481355.7,286046985.3,N
1498481375.6,286046987.8,N
1498481395.4,286046987.7,N
1498481415.2,286046985.3,N
1498481435.1,286046988.0,N
1498481436.0,286046988.0,N
1498481455.8,286046985.6,N
1498481475.7,286046988.4,N
1498481495.5,286046986.6,N
1498481515.3,286046988.3,N
1498481535.2,286046988.1,N
1498481555.0,286046987.7,N
1498481555.9,286046987.7,N
1498481575.7,286046988.1,N
1498481595.6,286046985.9,N
1498481615.4,286046986.2,N
1498481635.3,286046986.5,N
1498481655.1,286046985.5,N
1498481656.0,286046985.5,N
1498481675.8,286046986.0,N
1498481695.7,286046984.2,N
1498481715.5,286046984.0,N
1498481735.3,286046983.8,N
1498481755.2,286046984.3,N
1498481775.0,286046986.8,N
1498481775.9,286046986.8,N
1498481795.8,286046984.0,N
1498481815.6,286046986.8,N
1498481835.4,286046984.0,N
1498481855.3,286046984.3,N
1498481875.1,286046984.9,N
1498481895.8,286046983.8,N
1498481915.7,286046984.3,N
1498481935.5,286046983.9,N
1498481955.4,286046984.1,N
1498481975.2,286046983.9,N
1498481995.0,286046986.5,N
1498481995.9,286046986.5,N
